Location: Laverne
(36.7100°N, 99.8930°W)
Time: 08:24:40
(UTC-05:00)

Daily predictions for brighter satellites

Satellite Brightness Start Highest point End
(mag) Time Altitude Azimuth Time Altitude Azimuth Time Altitude Azimuth
Cosmos 2112 Rocket 4.5 21:28:34 10° N 21:33:39 47° ENE 21:38:43 10° SE
Cosmos 2266 Rocket 4.0 21:29:43 10° S 21:35:56 67° E 21:42:03 10° NNE
Meteor 2-20 4.5 21:31:27 10° S 21:37:36 83° E 21:43:44 10° N
USA 186 2.3 21:37:12 10° S 21:39:21 39° W 21:41:35 10° NNW
CZ-4 DEB 2.9 21:37:23 10° S 21:40:34 77° W 21:43:48 10° NNW
Cosmos 1328 Rocket 4.4 21:36:42 10° NNW 21:41:02 53° W 21:45:19 10° S
H-2A R/B 2.7 21:37:07 10° SE 21:41:22 42° ENE 21:45:37 10° N
SPOT 5 4.0 21:40:19 10° SE 21:44:15 28° ENE 21:48:23 10° N
H-2A R/B 3.9 21:42:21 10° SSW 21:45:14 21° SE 21:52:33 10° E
Cosmos 2298 Rocket 4.4 21:41:38 10° S 21:46:39 44° ESE 21:51:41 10° NNE
H-2A R/B 4.0 21:46:44 10° S 21:50:22 41° W 21:53:58 10° NNW
Cosmos 2333 Rocket 3.9 21:47:20 10° N 21:51:19 19° NE 21:55:17 10° E
OTV 4 0.6 21:48:30 10° WSW 21:51:23 48° SSE 21:54:16 10° E
Hubble Space Telescope 2.3 21:49:49 10° SSW 21:52:46 19° SSE 21:54:57 13° SE
Cosmos 2297 Rocket 3.8 21:51:53 11° SE 21:54:20 14° E 21:57:16 10° ENE
Cosmos 2315 Rocket 4.2 21:49:40 10° N 21:55:43 53° E 22:01:44 10° SSE
YAOGAN 11 4.4 21:51:29 10° S 21:55:46 68° W 22:00:08 10° NNW
DELTA 2 R/B(2) 4.4 21:55:22 10° WNW 21:56:52 34° N 21:58:42 10° ENE
Cosmos 1726 3.6 21:53:57 10° NNE 21:57:01 23° ENE 21:59:13 14° ESE
SL-23 DEB 4.1 21:53:27 10° NW 21:58:50 66° NE 22:01:40 15° ESE
Cosmos 2219 Rocket 3.4 21:54:20 10° N 21:59:02 27° ENE 22:03:06 13° ESE
COSMOS 2428 2.9 21:58:04 10° NNW 22:03:42 59° ENE 22:08:25 15° SE
Cosmos 1437 Rocket 4.2 22:01:43 10° NNW 22:05:16 36° W 22:08:50 10° SSW
Meteor 1-4 Rocket 4.2 22:02:33 10° NNE 22:05:21 20° ENE 22:06:57 16° ESE
Cosmos 2058 2.9 22:01:48 10° S 22:05:51 64° E 22:09:55 10° NNE
DELTA 2 R/B (1) 4.1 22:01:08 10° WNW 22:06:28 48° SSW 22:10:38 16° SE
Cosmos 2151 3.3 22:02:52 10° SSW 22:07:02 69° W 22:11:14 10° N
Cosmos 1680 Rocket 3.8 22:03:54 10° NNW 22:09:07 68° WSW 22:14:21 10° S
Cosmos 405 4.3 22:08:19 10° NNW 22:11:44 40° W 22:15:06 10° SSW
Cosmos 1437 4.5 22:13:15 10° SW 22:16:17 35° WNW 22:19:20 10° N
Terra 4.0 22:15:20 10° ENE 22:16:30 11° ENE 22:17:40 10° NE
Cosmos 1898 Rocket 3.4 22:12:47 10° S 22:17:55 76° ESE 22:23:09 10° NNE
H-2A R/B 4.0 22:15:25 11° E 22:18:15 16° ENE 22:21:25 10° NNE
Cosmos 858 Rocket 4.4 22:14:57 10° S 22:20:07 72° ESE 22:25:19 10° NNE
Delta 2 Rocket 3.0 22:16:27 10° W 22:20:12 63° S 22:22:05 25° ESE
Tiangong 1 2.8 22:18:15 10° WNW 22:21:06 32° NNW 22:23:56 10° NE
Cosmos 1939 Rocket 3.1 22:18:36 11° S 22:22:15 63° W 22:26:07 10° NNW
NOSS 3-1 (A) 3.6 22:18:14 10° SW 22:24:03 76° WNW 22:30:29 10° NNE
Cosmos 2237 4.2 22:19:26 10° NNW 22:25:11 85° WSW 22:29:33 18° SSE
MetOp-B 4.2 22:23:27 19° SSE 22:27:18 63° ENE 22:32:36 10° N
CZ-4 SHROUD 3.1 22:28:40 29° SSE 22:30:05 79° ENE 22:33:13 10° N
SPOT 1/Viking Rocket 4.0 22:27:31 22° SE 22:30:31 46° ENE 22:35:26 10° N
OAO 2 Rocket 3.4 22:28:27 10° WSW 22:33:45 72° S 22:38:02 16° E
Cosmos 2150 Rocket 4.3 22:28:52 10° SSW 22:34:17 75° WNW 22:39:47 10° NNE
Cosmos 2237 Rocket 3.1 22:30:09 10° N 22:35:21 35° ENE 22:38:17 22° ESE
Sich 1 3.0 22:31:28 13° S 22:35:23 85° E 22:39:48 10° N
Cosmos 1626 3.4 22:36:48 24° E 22:36:58 24° E 22:40:02 10° NE
Cosmos 1271 Rocket 2.9 22:35:37 10° N 22:39:25 52° E 22:40:45 34° SE
Cosmos 2082 3.8 22:33:55 10° S 22:39:28 54° ESE 22:45:02 10° NNE
Cosmos 2333 4.2 22:34:58 10° NNW 22:40:44 85° WSW 22:44:23 24° SSE
YAOGAN 6 2.5 22:39:27 34° SSE 22:40:52 69° ENE 22:44:26 10° N
Iridium 2 4.2 22:40:38 34° SE 22:41:36 42° E 22:45:16 10° NNE
ERBS 3.2 22:38:13 10° SW 22:41:39 53° NW 22:45:05 10° NNE
Cosmos 1633 Rocket 3.0 22:39:37 14° S 22:43:19 83° W 22:47:41 10° N
Cosmos 2360 Rocket 3.9 22:39:14 10° NW 22:43:56 28° WSW 22:48:38 10° SSW
ATLAS 2AS CENTAUR R/B 2.9 22:38:49 10° SSW 22:46:01 62° ESE 22:53:52 10° NE
NOAA 11 4.4 22:45:11 28° SE 22:47:54 55° ENE 22:53:14 10° N
Cosmos 1703 3.1 22:50:08 30° S 22:51:58 85° E 22:55:53 10° N
CZ-4C R/B 4.2 22:52:05 28° ENE 22:52:16 28° ENE 22:55:17 10° NNE
Cosmos 2242 Rocket 3.5 22:48:05 10° N 22:52:36 84° E 22:54:37 33° S
Envisat 4.0 22:48:32 12° SSW 22:52:53 42° W 22:57:42 10° NNW
SL-14 R/B 4.3 22:49:48 10° SSW 22:53:36 45° W 22:57:28 10° N
CZ-4 R/B 3.8 22:50:46 10° NNE 22:55:39 68° ESE 22:58:03 29° S
PSLV R/B 4.5 22:55:40 25° SW 22:56:46 34° W 22:59:35 10° NNW
ATLAS 3B R/B 3.8 22:50:38 10° NNW 22:56:52 33° NE 23:00:41 19° E
USA 245 3.0 22:58:26 45° NNW 22:58:26 45° NNW 23:00:07 10° NNW
Cosmos 1300 4.5 23:05:17 10° NNW 23:08:35 27° W 23:10:50 16° SW
USA 32 4.1 23:05:15 10° N 23:10:30 76° W 23:13:03 31° S
Cosmos 2227 Rocket 2.3 23:05:36 10° SSW 23:11:14 76° WNW 23:16:56 10° NNE
Cosmos 1937 Rocket 4.5 23:06:55 10° SW 23:11:56 46° WNW 23:16:57 10° N
FALCON 9 R/B 4.1 22:43:15 10° W 23:14:59 82° S 23:20:47 21° E
Cosmos 990 Rocket 4.5 23:12:38 10° SSW 23:17:40 59° WNW 23:22:45 10° N
DMSP B5D2-2 4.2 23:14:27 10° NNE 23:19:32 51° E 23:20:22 46° SE
DELTA 2 DEB (DPAF) 4.1 23:18:48 57° SE 23:19:39 75° ENE 23:24:07 10° N
NOSS 2-3 (E) 4.2 23:21:05 45° ESE 23:21:05 45° ESE 23:25:56 10° NE
OTV 4 2.3 23:24:45 10° W 23:26:19 27° W 23:26:19 27° W
ARGOS 3.5 23:26:16 34° SSW 23:28:27 59° W 23:33:47 10° NNW
Cosmos 1455 2.2 23:27:01 10° N 23:30:51 76° W 23:30:52 76° W
SL-16 R/B 2.8 23:25:46 10° N 23:31:13 44° ENE 23:32:32 38° E
Hubble Space Telescope 3.2 23:30:01 10° WSW 23:30:22 12° SW 23:30:22 12° SW
Cosmos 2333 Rocket 2.5 23:30:21 10° NNW 23:36:02 62° WSW 23:37:44 43° SSW
Cosmos 2297 Rocket 2.5 23:33:34 19° SW 23:37:42 66° WNW 23:43:20 10° NNE
Landsat 7 3.8 23:36:52 59° SSW 23:37:42 75° WSW 23:42:29 10° NNW
Cosmos 2219 Rocket 3.1 23:37:54 10° NW 23:43:03 38° WSW 23:44:50 30° SW
Cosmos 44 Rocket 3.3 23:43:24 68° SE 23:43:35 68° ESE 23:48:47 10° NE
Lacrosse 4 Rocket 1.9 23:40:55 10° NNW 23:45:17 54° ENE 23:45:17 54° ENE
Cosmos 1703 Rocket 4.0 23:41:34 10° N 23:45:29 51° ENE 23:45:29 51° ENE
NOSS 2-3 (C) 3.7 23:47:39 71° S 23:48:09 81° ESE 23:53:37 10° NE
Cosmos 1933 3.8 23:46:09 10° N 23:49:34 56° NNE 23:49:34 56° NNE
Cosmos 1269 Rocket 3.9 23:47:07 10° NNW 23:52:26 81° ENE 23:52:58 72° SE
Terra 1.7 23:53:15 71° SW 23:53:34 74° WSW 23:58:21 10° NNW
